Regional Weather Roundup
Issued by NWS

Home | Current Version | Previous Version | Graphics & Text | Print | Product List | Glossary On
Versions: 1 2 3 4 5 6 7 8 9 10 11 12 13 14 15 16 17 18 19 20 21 22 23 24 25 26 27 28 29 30 31 32 33 34 35 36 37 38 39 40 41 42 43 44 45 46 47 48 49 50
000
ASUS43 KLSX 300707
RWRMO

WEATHER SUMMARY FOR MISSOURI
NATIONAL WEATHER SERVICE SPRINGFIELD MO
200 AM CDT SUN AUG 30 2015

NOTE: "FAIR" INDICATES FEW OR NO CLOUDS BELOW 12,000 FEET WITH NO
       SIGNIFICANT WEATHER AND/OR OBSTRUCTIONS TO VISIBILITY.
       CURRENT SKY AND/OR WEATHER CONDITIONS ARE NOT AVAILABLE FOR
       CHILLICOTHE AND FARMINGTON.

MOZ001>031-035>038-043-044-053-054-300800-
...NORTHERN AND WESTERN MISSOURI...

CITY           SKY/WX    TMP DP  RH WIND       PRES   REMARKS
KANSAS CTY INT PTCLDY    64  59  83 N5        30.04F
KANSAS C DTWN  CLOUDY    68  66  93 N3        30.02F
LEE`S SUMMIT   PTCLDY    67  64  90 N6        30.03F
ST JOSEPH      CLOUDY    64  63  96 NE3       30.04F
CHILLICOTHE      N/A     67  65  93 CALM      30.04S
KIRKSVILLE     CLOUDY    67  65  93 N3        30.04F FOG

$$
MOZ066>068-077>081-088>096-101>105-300800-
...SOUTHWEST MISSOURI...

CITY           SKY/WX    TMP DP  RH WIND       PRES   REMARKS
SPRINGFIELD    MOCLDY    71  66  84 S8        30.01S
JOPLIN         PTCLDY    71  70  96 MISG      30.00F FOG

$$
MOZ032>034-039>042-045>050-055>058-069>072-300800-
...CENTRAL MISSOURI...

CITY           SKY/WX    TMP DP  RH WIND       PRES   REMARKS
COLUMBIA       CLOUDY    71  69  93 SE3       30.02F
JEFFERSON CITY CLEAR     70  68  93 CALM      30.01S
ROLLA          CLEAR     65  64  97 S6        30.02S
SEDALIA        FOG       67  65  93 SE3       30.02F VSB 1/2
WHITEMAN AFB   FOG       66  66 100 N3        30.00F VSB 1
WARRENSBURG    PTCLDY    68  66  94 NW3       30.01F
OSAGE BEACH    CLEAR     70  66  88 CALM      30.02S

$$
MOZ051-052-059>065-300800-
...EAST CENTRAL MISSOURI...

CITY           SKY/WX    TMP DP  RH WIND       PRES   REMARKS
ST LOUIS INTL  CLOUDY    76  66  71 CALM      30.02S
SPIRIT OF STL  PTCLDY    72  69  90 CALM      30.00F
ST CHARLES     CLOUDY    70  69  97 MISG      30.01S

$$
MOZ072>076-082>087-097>100-106>115-300800-
...SOUTH CENTRAL AND SOUTHEAST MISSOURI...

CITY           SKY/WX    TMP DP  RH WIND       PRES   REMARKS
CAPE GIRARDEAU CLOUDY    73  67  81 SW5       30.04F
FARMINGTON     CLOUDY    68  66  94 SE5       30.06F
POPLAR BLUFF   CLOUDY    72  69  90 CALM      30.02S
WEST PLAINS    CLOUDY    69  65  86 CALM      30.05S

$$


USA.gov is the U.S. government's official web portal to all federal, state and local government web resources and services.